CW4778 Auckland NZ current weather conditions

sailwx.info

Wind from 280

Air temperature 12.8° C
Dewpoint 10.5° C

Last reported at 2017-Sep-23 10:28 UTC.
Time now 2017-Sep-23 11:20 UTC

Location: S 36°52' E 174°44'.
View on Google Maps.

See reports from other nearby stations

  
Tides and Currents Weather Stations Pressure Air Temp Water Temp Dewpoint Dewpoint Depression Visibility Wind Speed Wind Dir Waves Ship Positions
date/time (UTC)wind fromknots sea level pressurealtimeterstation pressurevisibilityair tempwater tempwave heightnotes
2017-Sep-23 10:28 280 12.8
2017-Sep-23 10:18 274 12.8
2017-Sep-23 09:58 268 0 gusting 4 12.2
2017-Sep-23 09:48 239 2 gusting 6 12.2
2017-Sep-23 09:28 253 12.2
2017-Sep-23 09:18 279 12.2
2017-Sep-23 09:08 285 12.2
2017-Sep-23 08:58 286 12.2
2017-Sep-23 08:38 269 12.2
2017-Sep-23 08:08 276 0 gusting 5 12.8
2017-Sep-23 07:58 251 12.8
2017-Sep-23 07:48 283 12.8
2017-Sep-23 07:18 239 12.8
2017-Sep-23 06:58 232 1 gusting 6 12.8
2017-Sep-23 06:48 259 1 gusting 6 12.8
2017-Sep-23 06:38 209 0 gusting 5 13.3
2017-Sep-23 06:28 250 0 gusting 6 13.3
2017-Sep-23 06:18 232 1 gusting 10 13.9
2017-Sep-23 06:08 245 4 gusting 11 13.9
2017-Sep-23 05:58 240 4 gusting 8 14.4
2017-Sep-23 05:38 220 5 gusting 11 14.4
2017-Sep-23 05:28 249 3 gusting 13 14.4
2017-Sep-23 05:18 226 3 gusting 12 15.0
2017-Sep-23 05:08 188 7 gusting 12 15.0
2017-Sep-23 04:58 199 5 gusting 10 15.0
2017-Sep-23 04:38 221 5 gusting 11 15.6
2017-Sep-23 04:18 218 3 gusting 11 16.1
2017-Sep-23 03:48 211 7 gusting 13 16.1
2017-Sep-23 03:28 215 4 gusting 13 16.1
2017-Sep-23 03:08 221 6 gusting 18 16.7
2017-Sep-23 02:48 206 7 gusting 13 16.7
2017-Sep-23 02:38 194 9 gusting 15 16.7
2017-Sep-23 02:28 222 8 gusting 15 17.2
2017-Sep-23 02:18 189 6 gusting 19 17.2
2017-Sep-23 02:08 216 6 gusting 18 17.2
2017-Sep-23 01:58 200 6 gusting 13 16.7
2017-Sep-23 01:48 225 8 gusting 13 17.2
2017-Sep-23 01:38 296 9 gusting 18 18.3
2017-Sep-23 01:28 171 6 gusting 15 18.9
2017-Sep-23 00:58 182 8 gusting 13 18.9
2017-Sep-23 00:48 221 7 gusting 18 18.9
2017-Sep-23 00:38 182 11 gusting 19 18.9
2017-Sep-23 00:08 188 5 gusting 14 19.4
2017-Sep-22 23:48 203 8 gusting 20 18.9
2017-Sep-22 23:38 182 13 gusting 19 18.9
2017-Sep-22 23:08 174 13 gusting 15 18.3
2017-Sep-22 22:58 194 8 gusting 14 18.9
2017-Sep-22 22:38 228 7 gusting 14 17.8
2017-Sep-22 22:18 277 7 gusting 18 17.2
2017-Sep-22 22:08 172 10 gusting 18 17.2
2017-Sep-22 21:58 198 4 gusting 14 17.2
2017-Sep-22 21:48 201 5 gusting 19 17.2
2017-Sep-22 21:38 201 5 gusting 15 18.3
2017-Sep-22 21:08 216 7 gusting 14 17.2
2017-Sep-22 20:58 199 9 gusting 15 16.1
2017-Sep-22 20:48 206 5 gusting 18 15.6
2017-Sep-22 20:18 225 6 gusting 10 14.4
2017-Sep-22 19:58 235 7 gusting 13 13.9
2017-Sep-22 19:48 197 1 gusting 11 13.9
2017-Sep-22 19:38 213 3 gusting 10 13.3
2017-Sep-22 19:28 220 5 gusting 13 13.3
2017-Sep-22 19:18 201 6 gusting 13 12.8
2017-Sep-22 19:08 199 1 gusting 7 12.8
2017-Sep-22 18:48 234 11.7
2017-Sep-22 18:28 224 11.1
2017-Sep-22 18:18 219 11.1
2017-Sep-22 18:08 215 0 gusting 4 11.1
2017-Sep-22 17:48 215 11.1
2017-Sep-22 17:38 189 0 gusting 5 11.1
2017-Sep-22 17:28 203 0 gusting 5 11.1
2017-Sep-22 17:18 259 0 gusting 8 11.1
2017-Sep-22 16:58 250 1 gusting 6 11.1
2017-Sep-22 16:48 191 1 gusting 6 11.1
2017-Sep-22 16:38 221 0 gusting 5 11.1
2017-Sep-22 16:28 250 2 gusting 6 11.7
2017-Sep-22 16:18 224 4 gusting 8 11.7
2017-Sep-22 16:08 208 5 gusting 13 11.7
2017-Sep-22 15:58 211 4 gusting 7 11.1
2017-Sep-22 15:38 212 4 gusting 10 11.1
2017-Sep-22 15:18 220 1 gusting 10 10.6
2017-Sep-22 15:08 216 1 gusting 5 10.6
2017-Sep-22 14:58 206 10.6
2017-Sep-22 14:38 235 0 gusting 6 10.6
2017-Sep-22 14:28 231 1 gusting 6 10.6
2017-Sep-22 14:18 227 0 gusting 6 10.6
2017-Sep-22 14:08 260 0 gusting 5 10.6
2017-Sep-22 13:58 234 1 gusting 6 10.6
2017-Sep-22 13:48 260 2 gusting 8 10.6
2017-Sep-22 13:28 235 0 gusting 4 10.6
2017-Sep-22 13:08 243 0 gusting 5 10.6
2017-Sep-22 12:58 209 0 gusting 4 10.6
2017-Sep-22 12:48 248 0 gusting 5 10.0
2017-Sep-22 12:18 263 10.0
2017-Sep-22 12:08 240 0 gusting 5 10.0
2017-Sep-22 11:58 248 2 gusting 6 10.6
2017-Sep-22 11:48 249 10.6
2017-Sep-22 11:38 230 2 gusting 6 10.6
2017-Sep-22 11:18 240 0 gusting 5 10.6
2017-Sep-22 11:08 242 1 gusting 6 10.6
2017-Sep-22 10:58 253 10.6
2017-Sep-22 10:48 230 0 gusting 6 10.6
2017-Sep-22 10:38 222 10.0
2017-Sep-22 10:28 247 0 gusting 1 10.0
2017-Sep-22 10:18 263 10.0
2017-Sep-22 10:08 246 10.0
2017-Sep-22 09:58 251 10.0
2017-Sep-22 09:48 250 10.6
2017-Sep-22 09:38 251 10.6
2017-Sep-22 09:08 261 10.0
2017-Sep-22 08:58 260 10.0
2017-Sep-22 08:48 258 10.6
2017-Sep-22 08:38 261 10.6
2017-Sep-22 08:28 260 10.6
2017-Sep-22 08:18 258 10.6
2017-Sep-22 08:08 258 11.1
2017-Sep-22 07:58 239 11.1
2017-Sep-22 07:48 233 11.1
2017-Sep-22 07:38 250 11.1
2017-Sep-22 07:18 263 0 gusting 5 11.7
2017-Sep-22 07:08 276 11.7
2017-Sep-22 06:58 279 11.7
2017-Sep-22 06:38 238 1 gusting 6 12.2
2017-Sep-22 06:28 238 2 gusting 7 12.2
2017-Sep-22 06:08 255 4 gusting 8 12.8
2017-Sep-22 05:58 213 1 gusting 10 12.8
2017-Sep-22 05:38 251 3 gusting 13 13.3
2017-Sep-22 04:58 209 8 gusting 18 13.9
2017-Sep-22 04:48 189 7 gusting 13 14.4
2017-Sep-22 04:38 225 5 gusting 15 14.4
2017-Sep-22 04:28 206 10 gusting 24 14.4
2017-Sep-22 04:18 210 10 gusting 19 15.0
2017-Sep-22 04:08 231 13 gusting 20 15.0
2017-Sep-22 03:58 273 9 gusting 14 15.6
2017-Sep-22 03:38 232 6 gusting 18 15.0
2017-Sep-22 03:28 220 7 gusting 19 14.4
2017-Sep-22 03:18 220 8 gusting 20 14.4
2017-Sep-22 02:58 196 6 gusting 18 16.1
2017-Sep-22 02:38 201 8 gusting 14 16.1
2017-Sep-22 02:18 205 13 gusting 20 15.6
2017-Sep-22 02:08 193 13 gusting 24 15.0
2017-Sep-22 01:58 201 14 gusting 21 15.0
2017-Sep-22 01:48 190 12 gusting 22 15.0
2017-Sep-22 01:38 250 6 gusting 18 15.6
2017-Sep-22 01:28 191 10 gusting 18 15.0
2017-Sep-22 01:18 208 7 gusting 14 15.6
2017-Sep-22 01:08 186 6 gusting 15 15.0
2017-Sep-22 00:58 198 6 gusting 15 15.0
2017-Sep-22 00:28 210 6 gusting 19 16.7
2017-Sep-22 00:08 192 7 gusting 18 17.2
2017-Sep-21 23:58 220 4 gusting 12 17.2
2017-Sep-21 23:48 160 8 gusting 13 16.7
2017-Sep-21 23:38 198 5 gusting 13 16.1
2017-Sep-21 23:08 205 5 gusting 11 13.9
2017-Sep-21 22:58 206 6 gusting 11 12.8
2017-Sep-21 22:48 155 7 gusting 13 13.3
2017-Sep-21 22:18 214 4 gusting 10 12.2
2017-Sep-21 21:58 180 5 gusting 8 11.7
2017-Sep-21 21:48 200 6 gusting 12 12.2
2017-Sep-21 21:28 188 2 gusting 6 12.2
2017-Sep-21 21:18 191 4 gusting 7 12.2
2017-Sep-21 20:58 157 3 gusting 6 11.7
2017-Sep-21 20:48 180 0 gusting 4 11.1
2017-Sep-21 20:38 172 1 gusting 5 11.1
2017-Sep-21 20:28 186 1 gusting 4 11.1
2017-Sep-21 20:18 188 1 gusting 5 11.1
2017-Sep-21 20:08 186 0 gusting 4 11.1
2017-Sep-21 19:58 191 1 gusting 5 11.1
2017-Sep-21 19:48 174 11.1
2017-Sep-21 19:38 168 0 gusting 1 11.1
2017-Sep-21 19:28 168 10.6
2017-Sep-21 18:58 182 0 gusting 1 10.6
2017-Sep-21 18:48 193 10.6
2017-Sep-21 18:38 194 10.6
2017-Sep-21 18:18 241 10.6
2017-Sep-21 18:08 241 0 gusting 1 10.6
2017-Sep-21 17:58 292 10.6
2017-Sep-21 17:28 024 10.0
2017-Sep-21 17:08 022 10.6
2017-Sep-21 16:58 023 10.6
2017-Sep-21 16:38 022 10.6
2017-Sep-21 16:18 015 10.0
2017-Sep-21 16:08 016 10.0
2017-Sep-21 15:58 015 10.0
2017-Sep-21 15:28 015 10.6
2017-Sep-21 15:18 016 10.6
2017-Sep-21 14:58 015 10.6
2017-Sep-21 14:48 019 10.6
2017-Sep-21 14:38 013 10.6
2017-Sep-21 14:28 016 10.6
2017-Sep-21 14:18 016 0 gusting 1 10.6
2017-Sep-21 14:08 031 10.6
2017-Sep-21 13:48 024 10.6
2017-Sep-21 13:38 024 10.6
2017-Sep-21 13:28 022 10.6
2017-Sep-21 12:58 023 10.0
2017-Sep-21 12:38 023 10.0
2017-Sep-21 12:28 023 10.0
2017-Sep-21 12:18 022 9.4
2017-Sep-21 12:08 017 10.0
2017-Sep-21 11:38 019 10.0
2017-Sep-21 11:28 018 10.6
2017-Sep-21 11:18 019 10.0
2017-Sep-21 11:08 021 10.0